FW7313 Weather Reports


time (UTC)temp
C
wind
direction
speed
KPH
gust
KPH
rain 1hr
cm
rain 24hr
cm
rain mn
cm
humidity
%
barometer
mb
20260510104419 24 161 0.0 6.4 0.00 0.00 0.00 85 1009.6
20260510103916 24 187 0.0 6.4 0.00 0.00 0.00 85 1009.5
20260510103414 24 189 1.6 4.8 0.00 0.00 0.00 85 1009.4
20260510102908 24 116 3.2 9.7 0.00 0.00 0.00 85 1009.5
20260510102404 24 156 3.2 16.1 0.00 0.00 0.00 86 1009.5
20260510101856 24 331 0.0 1.6 0.00 0.00 0.00 86 1009.4
20260510101354 24 163 0.0 0.0 0.00 0.00 0.00 86 1009.4
20260510100850 24 176 0.0 1.6 0.00 0.00 0.00 86 1009.3
20260510100347 24 200 0.0 1.6 0.00 0.00 0.00 86 1009.6
20260510095844 24 173 3.2 9.7 0.00 0.00 0.00 86 1009.4
20260510095333 24 216 0.0 4.8 0.00 0.00 0.00 86 1009.2
20260510094832 24 171 8.0 9.7 0.00 0.00 0.00 86 1009.2
20260510094327 24 174 0.0 6.4 0.00 0.00 0.00 86 1009.3
20260510093819 24 156 0.0 4.8 0.00 0.00 0.00 86 1009.3
20260510093315 24 182 0.0 6.4 0.00 0.00 0.00 86 1009.5
20260510092811 24 152 0.0 0.0 0.00 0.00 0.00 86 1009.4
20260510092307 24 167 0.0 1.6 0.00 0.00 0.00 86 1009.4
20260510091803 24 208 0.0 4.8 0.00 0.00 0.00 86 1009.5
20260510091301 24 187 1.6 11.3 0.00 0.00 0.00 86 1009.4
20260510090757 23 216 0.0 1.6 0.00 0.00 0.00 86 1009.4
20260510090254 23 242 3.2 11.3 0.00 0.00 0.00 86 1009.5
20260510085749 23 200 1.6 9.7 0.00 0.00 0.00 86 1009.5
20260510085243 23 167 3.2 11.3 0.00 0.00 0.00 86 1009.4
20260510084740 23 187 3.2 6.4 0.00 0.00 0.00 86 1009.5
20260510084237 23 192 0.0 4.8 0.00 0.00 0.00 86 1009.3
20260510083733 23 166 0.0 4.8 0.00 0.00 0.00 87 1009.3
20260510083230 23 152 0.0 1.6 0.00 0.00 0.00 86 1009.3
20260510082726 23 13 0.0 0.0 0.00 0.00 0.00 86 1009.3
20260510082223 23 176 0.0 4.8 0.00 0.00 0.00 86 1009.1
20260510081722 23 144 0.0 0.0 0.00 0.00 0.00 86 1009.4
20260510081218 23 228 0.0 4.8 0.00 0.00 0.00 86 1009.2
20260510080713 23 113 0.0 0.0 0.00 0.00 0.00 86 1009.2
20260510080209 23 171 0.0 0.0 0.00 0.00 0.00 86 1009.4
20260510075706 23 203 0.0 0.0 0.00 0.00 0.00 86 1009.1
20260510075204 23 180 0.0 0.0 0.00 0.00 0.00 86 1009.1
20260510074701 23 183 0.0 4.8 0.00 0.00 0.00 86 1008.9
20260510074157 23 187 0.0 6.4 0.00 0.00 0.00 86 1009.1
20260510073654 23 203 0.0 1.6 0.00 0.00 0.00 86 1009.2
20260510073149 23 294 0.0 9.7 0.00 0.00 0.00 86 1009.0
20260510072645 23 167 0.0 4.8 0.00 0.00 0.00 86 1009.2
20260510072142 23 186 0.0 4.8 0.00 0.00 0.00 86 1009.2
20260510071638 23 160 0.0 6.4 0.00 0.00 0.00 85 1009.0
20260510071136 23 167 1.6 9.7 0.00 0.00 0.00 85 1009.0
20260510070633 23 172 1.6 4.8 0.00 0.00 0.00 85 1009.1
20260510070131 23 179 4.8 6.4 0.00 0.00 0.00 85 1009.2
20260510065626 23 167 0.0 6.4 0.00 0.00 0.00 85 1009.2
20260510065122 23 155 3.2 11.3 0.00 0.00 0.00 85 1009.3
20260510064619 23 170 6.4 9.7 0.00 0.00 0.00 84 1009.1
20260510064116 23 179 1.6 9.7 0.00 0.00 0.00 84 1009.3
20260510063612 23 178 0.0 9.7 0.00 0.00 0.00 84 1009.3
20260510063109 23 178 4.8 9.7 0.00 0.00 0.00 83 1009.5
20260510062605 24 164 11.3 12.9 0.00 0.00 0.00 83 1009.5
20260510062100 24 203 0.0 0.0 0.00 0.00 0.00 82 1009.7
20260510061551 24 175 0.0 6.4 0.00 0.00 0.00 81 1009.4
20260510061048 24 153 0.0 12.9 0.00 0.00 0.00 81 1009.6
20260510060545 24 137 3.2 4.8 0.00 0.00 0.00 80 1009.5
20260510060041 24 160 11.3 12.9 0.00 0.00 0.00 80 1009.6
20260510055537 24 188 4.8 16.1 0.00 0.00 0.00 81 1009.3
20260510055036 24 162 4.8 11.3 0.00 0.00 0.00 80 1009.9
20260510054531 24 152 8.0 12.9 0.00 0.00 0.00 80 1009.9
20260510054026 25 195 6.4 9.7 0.00 0.00 0.00 80 1009.6
20260510053521 24 136 0.0 20.9 0.00 0.00 0.00 81 1009.8
20260510053018 24 163 3.2 9.7 0.00 0.00 0.00 82 1009.6
20260510052514 25 177 0.0 6.4 0.00 0.00 0.00 82 1010.1
20260510052010 25 127 0.0 1.6 0.00 0.00 0.00 82 1009.9
20260510051506 25 170 0.0 11.3 0.00 0.00 0.00 82 1009.8
20260510051003 25 144 0.0 0.0 0.00 0.00 0.00 82 1009.9
20260510050500 25 132 6.4 11.3 0.00 0.00 0.00 82 1010.1
20260510045957 25 111 1.6 12.9 0.00 0.00 0.00 82 1010.1
20260510045454 25 147 8.0 11.3 0.00 0.00 0.00 82 1009.9
20260510044950 25 146 0.0 6.4 0.00 0.00 0.00 82 1010.3
20260510044447 25 130 0.0 4.8 0.00 0.00 0.00 82 1010.4
20260510043944 25 72 0.0 11.3 0.00 0.00 0.00 82 1010.2
20260510043440 25 60 0.0 9.7 0.00 0.00 0.00 81 1010.4
20260510042938 25 55 1.6 11.3 0.00 0.00 0.00 81 1010.6
20260510042434 25 61 4.8 6.4 0.00 0.00 0.00 81 1010.6
20260510041930 25 73 1.6 4.8 0.00 0.00 0.00 82 1010.4
20260510041427 25 161 3.2 6.4 0.00 0.00 0.00 82 1010.3
20260510040925 25 54 0.0 4.8 0.00 0.00 0.00 81 1010.5
20260510040421 25 115 0.0 6.4 0.00 0.00 0.00 81 1010.4
20260510035917 25 87 0.0 1.6 0.00 0.00 0.00 81 1010.5
20260510035413 25 61 0.0 4.8 0.00 0.00 0.00 81 1010.4
20260510034908 25 102 4.8 9.7 0.00 0.00 0.00 81 1010.0
20260510034407 25 167 1.6 16.1 0.00 0.00 0.00 81 1009.9
20260510033902 25 160 0.0 4.8 0.00 0.00 0.00 81 1010.2
20260510033359 25 68 3.2 6.4 0.00 0.00 0.00 81 1010.2
20260510032855 25 78 0.0 6.4 0.00 0.00 0.00 82 1010.3
20260510032352 25 65 3.2 4.8 0.00 0.00 0.00 82 1010.3
20260510031848 25 60 3.2 12.9 0.00 0.00 0.00 82 1010.5
20260510031343 25 72 0.0 9.7 0.00 0.00 0.00 82 1010.3
20260510030843 25 53 3.2 16.1 0.00 0.00 0.00 81 1010.3
20260510030340 25 46 0.0 1.6 0.00 0.00 0.00 81 1010.0
20260510025838 25 52 4.8 16.1 0.00 0.00 0.00 81 1010.2
20260510025335 25 48 6.4 16.1 0.00 0.00 0.00 80 1010.0
20260510024831 25 67 1.6 12.9 0.00 0.00 0.00 80 1009.7
20260510024328 25 38 1.6 6.4 0.00 0.00 0.00 80 1009.8
20260510023825 25 60 1.6 6.4 0.00 0.00 0.00 80 1009.5
20260510023321 25 103 1.6 1.6 0.00 0.00 0.00 79 1009.5
20260510022818 26 80 1.6 9.7 0.00 0.00 0.00 78 1009.7
20260510022317 26 56 0.0 1.6 0.00 0.00 0.00 77 1009.5
20260510021817 26 41 0.0 11.3 0.00 0.00 0.00 75 1009.6
20260510021315 26 113 3.2 9.7 0.00 0.00 0.00 70 1009.4
20260510020811 26 63 0.0 1.6 0.00 0.00 0.00 69 1009.0
20260510020306 26 91 0.0 1.6 0.00 0.00 0.00 69 1008.8
20260510015802 26 131 0.0 9.7 0.00 0.00 0.00 70 1008.7
20260510015258 26 120 0.0 9.7 0.00 0.00 0.00 70 1008.4
20260510014753 26 146 0.0 9.7 0.00 0.00 0.00 70 1008.2
20260510014250 26 176 3.2 9.7 0.00 0.00 0.00 70 1008.1
20260510013746 26 163 9.7 12.9 0.00 0.00 0.00 69 1008.4
20260510013242 26 71 0.0 4.8 0.00 0.00 0.00 69 1008.0
20260510012737 26 176 0.0 11.3 0.00 0.00 0.00 68 1007.8
20260510012232 27 141 0.0 0.0 0.00 0.00 0.00 67 1008.1
20260510011732 27 89 0.0 1.6 0.00 0.00 0.00 67 1007.9
20260510011227 27 58 0.0 6.4 0.00 0.00 0.00 66 1007.8
20260510010725 27 169 8.0 16.1 0.00 0.00 0.00 65 1007.0
20260510010221 27 146 8.0 16.1 0.00 0.00 0.00 63 1007.3
20260510005718 27 106 6.4 11.3 0.00 0.00 0.00 62 1007.3
20260510005214 27 170 0.0 20.9 0.00 0.00 0.00 61 1007.3
20260510004713 27 183 0.0 9.7 0.00 0.00 0.00 60 1007.2
20260510004211 28 116 0.0 0.0 0.00 0.00 0.00 59 1007.3
20260510003708 28 160 0.0 4.8 0.00 0.00 0.00 58 1007.4
20260510003203 28 139 4.8 17.7 0.00 0.00 0.00 56 1007.3
20260510002702 29 163 8.0 17.7 0.00 0.00 0.00 53 1007.4
20260510002200 30 203 0.0 6.4 0.00 0.00 0.00 48 1007.2
20260510001657 30 146 0.0 0.0 0.00 0.00 0.00 42 1007.1
20260510001156 30 195 0.0 9.7 0.00 0.00 0.00 40 1007.2
20260510000651 30 173 3.2 6.4 0.00 0.00 0.00 40 1007.0
20260510000148 30 157 6.4 16.1 0.00 0.00 0.00 39 1006.9
20260509235645 30 131 4.8 12.9 0.00 0.00 0.00 38 1006.8
20260509235141 31 52 0.0 9.7 0.00 0.00 0.00 40 1006.8
20260509234637 31 166 6.4 12.9 0.00 0.00 0.00 40 1006.6
20260509234135 31 148 8.0 16.1 0.00 0.00 0.00 39 1006.8
20260509233633 31 175 6.4 11.3 0.00 0.00 0.00 36 1006.7
20260509233130 31 201 9.7 16.1 0.00 0.00 0.00 39 1006.5
20260509232625 32 181 3.2 11.3 0.00 0.00 0.00 36 1006.5
20260509232123 32 174 0.0 4.8 0.00 0.00 0.00 34 1006.7
20260509231619 32 174 0.0 4.8 0.00 0.00 0.00 36 1006.7
20260509231117 32 160 1.6 6.4 0.00 0.00 0.00 42 1006.7
20260509230614 32 69 0.0 1.6 0.00 0.00 0.00 45 1006.6
20260509230111 32 119 4.8 11.3 0.00 0.00 0.00 44 1006.5
20260509225607 32 160 1.6 11.3 0.00 0.00 0.00 45 1006.4
20260509225102 32 180 1.6 11.3 0.00 0.00 0.00 47 1006.4
20260509224558 32 174 0.0 9.7 0.00 0.00 0.00 49 1006.4
20260509224055 33 95 0.0 4.8 0.00 0.00 0.00 45 1006.3
20260509223552 35 96 0.0 1.6 0.00 0.00 0.00 38 1006.4
20260509223050 33 281 0.0 0.0 0.00 0.00 0.00 38 1006.3
20260509222545 33 289 0.0 0.0 0.00 0.00 0.00 43 1006.2
20260509222042 33 285 0.0 0.0 0.00 0.00 0.00 38 1006.6
20260509221537 33 231 0.0 0.0 0.00 0.00 0.00 38 1006.3
20260509221033 33 178 0.0 0.0 0.00 0.00 0.00 37 1006.3
20260509220529 35 317 0.0 0.0 0.00 0.00 0.00 38 1006.1
20260509220026 35 349 0.0 0.0 0.00 0.00 0.00 39 1006.2
20260509215521 35 279 1.6 1.6 0.00 0.00 0.00 36 1006.3
20260509215019 35 293 0.0 0.0 0.00 0.00 0.00 38 1006.3
20260509214516 34 320 0.0 0.0 0.00 0.00 0.00 38 1006.5
20260509214013 34 259 0.0 0.0 0.00 0.00 0.00 41 1006.1
20260509213508 34 254 0.0 1.6 0.00 0.00 0.00 37 1006.2
20260509213006 35 230 4.8 9.7 0.00 0.00 0.00 37 1006.1
20260509212503 33 166 0.0 6.4 0.00 0.00 0.00 39 1006.2
20260509212000 33 43 1.6 6.4 0.00 0.00 0.00 37 1006.5
20260509211455 33 150 6.4 9.7 0.00 0.00 0.00 39 1006.2
20260509210952 34 179 0.0 0.0 0.00 0.00 0.00 36 1006.1
20260509210449 33 231 0.0 0.0 0.00 0.00 0.00 39 1006.3
20260509205944 34 157 0.0 9.7 0.00 0.00 0.00 38 1006.4
20260509205439 34 42 3.2 4.8 0.00 0.00 0.00 37 1006.3
20260509204935 33 294 0.0 0.0 0.00 0.00 0.00 43 1006.3
20260509204432 33 170 0.0 6.4 0.00 0.00 0.00 40 1006.4
20260509203928 34 274 0.0 6.4 0.00 0.00 0.00 40 1006.2
20260509203424 35 312 0.0 4.8 0.00 0.00 0.00 41 1006.3
20260509202922 35 269 0.0 0.0 0.00 0.00 0.00 40 1006.5
20260509202418 34 49 0.0 0.0 0.00 0.00 0.00 40 1006.6
20260509201913 33 252 0.0 0.0 0.00 0.00 0.00 42 1006.8
20260509201408 33 247 0.0 0.0 0.00 0.00 0.00 41 1006.7
20260509200906 32 287 0.0 0.0 0.00 0.00 0.00 43 1007.0
20260509200405 32 314 0.0 4.8 0.00 0.00 0.00 42 1006.7
20260509195902 33 317 0.0 0.0 0.00 0.00 0.00 41 1007.0
20260509195402 32 6 0.0 0.0 0.00 0.00 0.00 39 1007.0
20260509194902 33 278 0.0 6.4 0.00 0.00 0.00 40 1007.1
20260509194359 33 59 0.0 0.0 0.00 0.00 0.00 42 1006.9
20260509193856 33 33 0.0 0.0 0.00 0.00 0.00 42 1006.9
20260509193355 33 163 1.6 4.8 0.00 0.00 0.00 41 1007.1
20260509192852 32 330 0.0 0.0 0.00 0.00 0.00 42 1007.0
20260509192348 32 332 0.0 6.4 0.00 0.00 0.00 45 1007.1
20260509191844 32 346 0.0 4.8 0.00 0.00 0.00 51 1007.1
20260509191340 32 340 4.8 11.3 0.00 0.00 0.00 46 1007.2
20260509190836 32 314 0.0 6.4 0.00 0.00 0.00 44 1007.0
20260509190333 32 28 0.0 1.6 0.00 0.00 0.00 44 1007.1
20260509185830 32 13 1.6 4.8 0.00 0.00 0.00 46 1007.0
20260509185327 32 39 4.8 4.8 0.00 0.00 0.00 43 1007.2
20260509184824 31 36 4.8 6.4 0.00 0.00 0.00 45 1007.1
20260509184321 32 48 0.0 1.6 0.00 0.00 0.00 44 1007.4
20260509183817 31 332 0.0 4.8 0.00 0.00 0.00 53 1007.5
20260509183307 31 267 0.0 1.6 0.00 0.00 0.00 51 1007.8
20260509182803 30 328 0.0 1.6 0.00 0.00 0.00 56 1007.6
20260509182300 30 323 0.0 0.0 0.00 0.00 0.00 53 1007.9
20260509181757 30 95 0.0 0.0 0.00 0.00 0.00 56 1007.9
20260509181254 30 349 8.0 16.1 0.00 0.00 0.00 56 1008.0
20260509180751 30 340 3.2 9.7 0.00 0.00 0.00 59 1008.1
20260509180248 30 327 12.9 12.9 0.00 0.00 0.00 57 1008.2
20260509175744 30 355 0.0 4.8 0.00 0.00 0.00 62 1008.4
20260509175241 30 320 0.0 11.3 0.00 0.00 0.00 59 1008.4
20260509174737 30 327 0.0 1.6 0.00 0.00 0.00 61 1008.5
20260509174232 28 310 0.0 0.0 0.00 0.00 0.00 65 1008.7
20260509173729 28 327 0.0 4.8 0.00 0.00 0.00 63 1008.6
20260509173225 29 293 0.0 0.0 0.00 0.00 0.00 63 1008.8
20260509172721 28 289 0.0 0.0 0.00 0.00 0.00 65 1008.8
20260509172217 28 284 0.0 0.0 0.00 0.00 0.00 63 1008.7
20260509171713 29 248 0.0 1.6 0.00 0.00 0.00 65 1008.9
20260509171210 28 263 0.0 0.0 0.00 0.00 0.00 65 1008.8
20260509170707 28 265 0.0 1.6 0.00 0.00 0.00 66 1008.9
20260509170202 28 192 0.0 1.6 0.00 0.00 0.00 67 1008.8
20260509165701 28 266 0.0 0.0 0.00 0.00 0.00 69 1009.0
20260509165156 28 284 0.0 1.6 0.00 0.00 0.00 71 1008.9
20260509164652 28 229 0.0 4.8 0.00 0.00 0.00 73 1008.9
20260509164148 28 208 3.2 4.8 0.00 0.00 0.00 72 1009.1
20260509163646 28 218 0.0 0.0 0.00 0.00 0.00 72 1008.9
20260509163142 28 243 0.0 0.0 0.00 0.00 0.00 73 1008.8
20260509162639 28 223 0.0 6.4 0.00 0.00 0.00 73 1008.8
20260509162134 28 286 0.0 0.0 0.00 0.00 0.00 72 1009.0
20260509161625 28 244 0.0 0.0 0.00 0.00 0.00 72 1009.0
20260509161120 28 268 0.0 0.0 0.00 0.00 0.00 73 1008.6
20260509160617 28 227 0.0 0.0 0.00 0.00 0.00 72 1008.7
20260509160112 28 291 0.0 0.0 0.00 0.00 0.00 73 1008.5
20260509155609 27 323 0.0 0.0 0.00 0.00 0.00 75 1008.8
20260509155105 27 122 0.0 1.6 0.00 0.00 0.00 75 1008.6
20260509154600 27 305 0.0 6.4 0.00 0.00 0.00 77 1008.7
20260509154058 26 282 0.0 1.6 0.00 0.00 0.00 79 1008.7
20260509153555 26 166 4.8 11.3 0.00 0.00 0.00 78 1008.5
20260509153052 26 150 1.6 4.8 0.00 0.00 0.00 79 1008.3
20260509152548 26 176 0.0 9.7 0.00 0.00 0.00 78 1008.6
20260509152046 26 147 0.0 0.0 0.00 0.00 0.00 79 1008.8
20260509151541 26 94 0.0 0.0 0.00 0.00 0.00 81 1008.8
20260509151039 25 264 0.0 0.0 0.00 0.00 0.00 81 1008.6
20260509150536 25 170 0.0 6.4 0.00 0.00 0.00 81 1008.1
20260509150035 25 151 0.0 1.6 0.00 0.00 0.00 80 1008.5
20260509145530 26 142 0.0 0.0 0.00 0.00 0.00 80 1008.7
20260509145025 25 153 0.0 0.0 0.00 0.00 0.00 80 1008.8
20260509144522 26 166 6.4 6.4 0.00 0.00 0.00 80 1008.4
20260509144020 26 136 0.0 0.0 0.00 0.00 0.00 81 1008.7
20260509143517 26 178 0.0 0.0 0.00 0.00 0.00 82 1008.7
20260509143015 26 220 0.0 0.0 0.00 0.00 0.00 82 1008.9
20260509142510 26 154 0.0 0.0 0.00 0.00 0.00 83 1009.2
20260509142005 26 219 0.0 0.0 0.00 0.00 0.00 84 1009.2
20260509141502 26 293 0.0 0.0 0.00 0.00 0.00 85 1008.9
20260509140959 26 292 0.0 0.0 0.00 0.00 0.00 87 1008.6
20260509140455 25 233 0.0 0.0 0.00 0.00 0.00 89 1008.7
20260509135954 25 263 0.0 1.6 0.00 0.00 0.00 89 1009.0
20260509135451 25 275 0.0 0.0 0.00 0.00 0.00 90 1009.1
20260509134948 25 287 0.0 0.0 0.00 0.00 0.00 90 1008.4
20260509134445 25 317 0.0 0.0 0.00 0.00 0.00 90 1008.5
20260509133943 25 313 0.0 0.0 0.00 0.00 0.00 91 1008.5
20260509133439 25 310 0.0 0.0 0.00 0.00 0.00 91 1008.7
20260509132937 24 309 0.0 0.0 0.00 0.00 0.00 91 1008.9
20260509132435 24 264 0.0 0.0 0.00 0.00 0.00 91 1008.8
20260509131932 24 269 0.0 0.0 0.00 0.00 0.00 91 1008.9
20260509131429 24 253 0.0 1.6 0.00 0.00 0.00 91 1008.7
20260509130926 24 290 0.0 0.0 0.00 0.00 0.00 91 1008.7
20260509130421 24 234 0.0 0.0 0.00 0.00 0.00 91 1008.8
20260509125918 24 244 0.0 0.0 0.00 0.00 0.00 91 1008.5
20260509125415 24 159 0.0 0.0 0.00 0.00 0.00 91 1008.8
20260509124911 23 167 0.0 0.0 0.00 0.00 0.00 91 1008.7
20260509124408 23 153 0.0 0.0 0.00 0.00 0.00 91 1008.9
20260509123906 23 148 0.0 0.0 0.00 0.00 0.00 91 1008.9
20260509123403 23 148 0.0 0.0 0.00 0.00 0.00 91 1008.9
20260509122858 23 168 0.0 0.0 0.00 0.00 0.00 91 1008.5
20260509122355 23 169 0.0 0.0 0.00 0.00 0.00 91 1008.6
20260509121852 23 169 0.0 0.0 0.00 0.00 0.00 91 1008.4
20260509121349 23 129 0.0 0.0 0.00 0.00 0.00 91 1008.7
20260509120848 23 52 0.0 0.0 0.00 0.00 0.00 91 1008.6
20260509120345 23 32 0.0 0.0 0.00 0.00 0.00 91 1008.7
20260509115843 23 23 0.0 0.0 0.00 0.00 0.00 91 1008.9
20260509115340 23 23 0.0 0.0 0.00 0.00 0.00 91 1008.7
20260509114838 23 23 0.0 0.0 0.00 0.00 0.00 91 1008.7
20260509114336 23 23 0.0 0.0 0.00 0.00 0.00 91 1008.6
20260509113835 23 23 0.0 0.0 0.00 0.00 0.00 91 1008.6
20260509113332 23 23 0.0 0.0 0.00 0.00 0.00 91 1008.7
20260509112828 23 22 0.0 0.0 0.00 0.00 0.00 90 1008.4
20260509112326 23 21 0.0 0.0 0.00 0.00 0.00 90 1008.6
20260509111822 23 21 0.0 0.0 0.00 0.00 0.00 90 1008.5
20260509111320 23 21 0.0 0.0 0.00 0.00 0.00 90 1008.4
20260509110817 23 21 0.0 0.0 0.00 0.00 0.00 90 1008.7
20260509110313 23 21 0.0 0.0 0.00 0.00 0.00 90 1008.3
20260509105812 23 21 0.0 0.0 0.00 0.00 0.00 90 1008.0
20260509105309 23 21 0.0 0.0 0.00 0.00 0.00 90 1008.0
20260509104806 23 21 0.0 0.0 0.00 0.00 0.00 90 1007.9